HYSIS

Last updated on Mon Jun 22 2026 00:02:52 GMT+0000 (Coordinated Universal Time)

1 43719U 18096A 26172.54243125 .00000750 00000+0 10958-3 0 9999 2 43719 97.9834 239.2567 0001791 96.3154 263.8261 14.78623542408064
UTC large
Height (km)
Speed (km/s)
/
Latitude / Longitude
Inclination (degrees)
Orbital Period (minutes)
Azimuth
Elevation
Range (km)
Doppler Factor

Next 0 passes for location: London (51.5072 / 0.1276)

No passes found over London.
HYSIS